Погода в Безенчуке

Погода в Безенчуке : погода сейчас, прогноз погоды и архив. Всё, что Вы хотите узнать о погоде в Безенчуке!

Хотите узнать прогноз погоды в Безенчуке? Тогда Вам сюда: Погода в Безенчуке

Поиск расширенной информации на нашем сайте:

Другие новости

Новости СМИ2

Главная страница сайта

Новости сайта

03.07.2017

Напоминаем, что на нашем специализированном сайте Метеоцентр.Азия вы можете получить высокодетализированные автоматические прогнозы погоды по пунктам России, СНГ и мира в авиационном формате (включающие направление и скорость ветра, видимость, явления погоды, количество и форму облачности, нижнюю и верхнюю границу облачности).


Погода в Безенчуке - сегодня

Время (UTC), дата Ветер
(°,м/с) 
Видим.   Явления Облачность Т
(°С)
Тd
(°С)
f(%) Тe
(°С)
Pmin
(гПа)
dP
(гПа)
Po
(мм)
O2
(г/м3)
Тmin Tmax R s Состояние
почвы
00 19.09.17 170 (Ю) 21000 м    ясно 
+18.5 +7.6 49 +19  1016.4  -0.5  758  285           
03 19.09.17 190 (Ю) 20000 м    3/0 верхняя 
[Ci fib]
+18.6 +8.1 50 +20  1016.6  0.1  758  285  +15.6        сухая 
06 19.09.17 200 (Ю) 20000 м    ясно 
+25.4 +10 38 +26  1016.7  0.3  758  278           
09 19.09.17 210 (ЮЗ) 5-12{12}  20000 м    ясно 
+30.5 +6.9 23 +31  1016.2  -0.4  758  274           
12 19.09.17 210 (ЮЗ) 4-10{15}  20000 м    4/0 верхняя 
[Ci fib]
+31.6 +4 17 +32  1015.3  -0.9  757  273           
15 19.09.17 220 (ЮЗ) 2{12}  20000 м    8/0 средняя, верхняя 
[Ac trans|Ci fib]
+27.1 +5 24 +27  1015.2  -0.2  757  277    +31.8       
18 19.09.17 230 (ЮЗ) 23000 м    ясно 
+22.3 +5.8 34 +22  1015.9  0.7  758  281           
21 19.09.17 240 (ЮЗ) 22000 м    ясно 
+12.3 +7.4 72 +14  1017.8  1.7  759  291           
00 20.09.17 340 (С) 23000 м    ясно 
+12.7 +8.6 76 +14  1019.2  1.3  760  291           
03 20.09.17 340 (С) 20000 м    3/0 средняя, верхняя 
[Ac trans|Ci fib]
+13.2 +8.9 75 +14  1020.3  1.1  761  291  +10.1        сухая 
06 20.09.17 010 (С) 20000 м    1/0 верхняя 
[Ci fib]
+18.6 +8.2 51 +20  1021.6  1.3  762  286           
09 20.09.17 340 (С) 20000 м    1/0 верхняя 
[Ci fib]
+21.1 +7.4 41 +21  1021.5  762  284           
12 20.09.17 030 (СВ) 20000 м    3/0 верхняя 
[Ci fib]
+22 +7.7 40 +22  1021.5  762  283           
15 20.09.17 350 (С) 20000 м    ясно 
+17.5 +6.1 47 +19  1022.2  0.6  762  288    +22.2       
18 20.09.17 350 (С) 23000 м    ясно 
+13.4 +7.9 69 +15  1023.2  0.9  763  292           
21 20.09.17 010 (С) 22000 м    ясно 
+12.2 +7.7 74 +13  1023.8  0.5  763  293           
00 21.09.17 тихо ()   23000 м    ясно 
+7.9 +6.4 90 +8  1024.5  0.7  764  298           
03 21.09.17 тихо ()   20000 м    ясно 
+4.3 +3.7 96 +4  1025.6  765  303  +4.1        сухая 
06 21.09.17 040 (СВ) 20000 м    1/0 верхняя 
[Ci fib]
+16.1 +8.2 59 +17  1026  0.7  765  290           
09 21.09.17 040 (СВ) 20000 м    1/0 верхняя 
[Ci fib]
+18.8 +7 46 +20  1025.2  -0.8  765  287           
12 21.09.17 010 (С) 20000 м    1/0 верхняя 
[Ci fib]
+20.1 +6.8 42 +20  1025  -0.2  764  286           
15 21.09.17 360 (С) 20000 м    10/3 600 м верхняя 
[Sc|Ci fib]
+16.2 +7.7 57 +17  1025.5  0.4  765  290    +20.3       
18 21.09.17 040 (СВ) 23000 м    ясно 
+13.9 +8.4 69 +14  1026.9  1.3  766  292           
21 21.09.17 020 (С) 23000 м    ясно 
+12.6 +8 74 +12  1027.5  0.6  766  294           
00 22.09.17 010 (С) н/о    н/о 
+10.7 +6.4 75 +10  1028.4  0.8  767  296           
Время (UTC), дата Ветер
(°,м/с) 
Видим.   Явления Облачность Т
(°С)
Тd
(°С)
f(%) Тe
(°С)
Pmin
(гПа)
dP
(гПа)
Po
(мм)
O2
(г/м3)
Тmin Tmax R s Состояние
почвы

Для получения пояснительной информации подведите курсор к названию столбца.

ПОГОДА в Безенчуке - архив

Всё, что Вы хотите узнать о погоде в Безенчуке - удобно и подробно!

Выберите нужную дату (начиная с 1 января 2015* года) и нажмите кнопку "Найти".
Будут отображены архивные сводки погоды по пункту Безенчук, начиная с указанной даты.


Отображать данные в формате CSV (для использования в таблицах Excel)


Внимание! Наш архив погоды предназначен исключительно для личного некоммерческого использования в познавательных целях. Если Вам необходимы официальные справки о состоянии погоды (для производственных, юридических, коммерческих и т.п. целей), обращайтесь в органы Росгидромета.

*Примечание: данная дата относится к архиву по метеостанциям СССР (Россия, СНГ, Балтия).
Архив по метеостанциям Зарубежной Европы и Азии (кроме Китая) хранится 10 дней, по другим регионам земного шара (Китай, Африка, Америка, Австралия, Океания) - 1 день.

Безенчук - район местоположения метеостанции


Название, широта, долгота, высота метеостанции:
Безенчук 53°ш. 49.4°д. 46 м над ур. моря [Российская Федерация]

Дополнительная информация

В oтличие oт бoльшинства пoгoдных сайтoв мы публикуем пoдрoбную метеoинфoрмацию в детальнoм прoфессиoнальнoм фoрмате.

Характеристики температуры и влажнoсти вoздуха измеряются на высoте 2 м в тени вдали oт зданий и деревьев.
Скoрoсть ветра измеряется на высoте 10 м (на урoвне рoста челoвека скoрoсть ветра ниже в 1.5-2 раза). Если метеoстанция нахoдится в гoрoде или в лесу, тo скoрoсть ветра занижена на 2-4 м/с пo сравнению с oткрытым местoм. Скoрoсть ветра над акватoриями крупных рек и oзёр, а также на вершинах хoлмoв на 2-5 м/с выше, чем в oбычных услoвиях.
Атмoсфернoе давление в разных тoчках местнoсти мoжет значительнo oтличаться oт давления на метеoстанции, в зависимoсти oт услoвий рельефа (при пoдъёме на 10 м давление пoнижается примернo на 1 мм рт.ст.).